,,PA_Meas_PMT16A,,PR_Meas_QMR101_102,,RH_Meas_QMH101,,SR_Meas_QMS101,,TA_Meas_QMH101,,GenWind,,GenWind,
time,status,PA,status,PR,status,RH,status,SR,status,TA,status,DirAvg,status,SpdAvg,
2015-12-31, 15:26:04,VALID,917.002,VALID,0,VALID,52.6549,VALID,544.834,VALID,26.6636,VALID,44,VALID,0,
2015-12-31, 15:27:04,VALID,916.945,VALID,0,VALID,54.3626,VALID,530.33,VALID,26.7593,VALID,50,VALID,0,
2015-12-31, 15:28:04,VALID,916.97,VALID,0,VALID,53.8366,VALID,532.908,VALID,26.8374,VALID,53,VALID,0.153516,
2015-12-31, 15:29:04,VALID,916.964,VALID,0,VALID,51.4123,VALID,537.635,VALID,26.8374,VALID,110,VALID,1.3875,
2015-12-31, 15:30:04,VALID,916.961,VALID,0,VALID,51.2446,VALID,537.958,VALID,26.8179,VALID,56,VALID,2.9957,
2015-12-31, 15:31:04,VALID,916.906,VALID,0,VALID,51.0007,VALID,539.355,VALID,26.7398,VALID,53,VALID,1.21602,
2015-12-31, 15:32:04,VALID,916.947,VALID,0,VALID,50.6652,VALID,538.388,VALID,26.6812,VALID,100,VALID,2.89961,
2015-12-31, 15:33:04,VALID,916.909,VALID,0,VALID,51.1836,VALID,534.842,VALID,26.6226,VALID,83,VALID,3.27734,
2015-12-31, 15:34:04,VALID,916.912,VALID,0,VALID,52.3957,VALID,528.933,VALID,26.6596,VALID,121,VALID,0.133203,
2015-12-31, 15:35:04,VALID,916.913,VALID,0,VALID,49.6666,VALID,526.139,VALID,26.8765,VALID,88,VALID,2.76211,
2015-12-31, 15:36:04,VALID,916.923,VALID,0,VALID,52.937,VALID,524.957,VALID,26.9351,VALID,63,VALID,1.91055,
2015-12-31, 15:37:04,VALID,916.916,VALID,0,VALID,50.8939,VALID,537.421,VALID,26.9351,VALID,68,VALID,0.203516,
2015-12-31, 15:38:04,VALID,916.913,VALID,0,VALID,49.5065,VALID,542.148,VALID,27.0523,VALID,60,VALID,0.419141,
2015-12-31, 15:39:04,VALID,916.947,VALID,0,VALID,49.2625,VALID,533.23,VALID,27.0523,VALID,97,VALID,1.37461,
2015-12-31, 15:40:04,VALID,916.943,VALID,0,VALID,51.3056,VALID,532.156,VALID,26.9937,VALID,31,VALID,2.26172,
2015-12-31, 15:41:04,VALID,916.971,VALID,0,VALID,49.697,VALID,543.008,VALID,27.0348,VALID,19,VALID,1.74102,
2015-12-31, 15:42:04,VALID,916.955,VALID,0,VALID,52.6168,VALID,514.643,VALID,27.0739,VALID,92,VALID,1.47109,
2015-12-31, 15:43:04,VALID,916.922,VALID,0,VALID,50.1011,VALID,506.263,VALID,27.1325,VALID,47,VALID,3.03711,
2015-12-31, 15:44:04,VALID,916.97,VALID,0,VALID,50.711,VALID,492.618,VALID,27.2302,VALID,45,VALID,0.348437,
2015-12-31, 15:45:04,VALID,916.947,VALID,0,VALID,47.1813,VALID,489.824,VALID,27.3865,VALID,353,VALID,2.08984,
2015-12-31, 15:46:04,VALID,916.902,VALID,0,VALID,46.4266,VALID,481.981,VALID,27.2868,VALID,9,VALID,2.61406,
2015-12-31, 15:47:04,VALID,916.957,VALID,0,VALID,49.0643,VALID,467.906,VALID,27.1911,VALID,49,VALID,2.83711,
2015-12-31, 15:48:04,VALID,916.945,VALID,0,VALID,49.3235,VALID,461.89,VALID,27.1695,VALID,47,VALID,1.12539,
2015-12-31, 15:49:04,VALID,916.95,VALID,0,VALID,49.4836,VALID,458.451,VALID,27.0719,VALID,76,VALID,1.77188,
2015-12-31, 15:50:04,VALID,916.954,VALID,0,VALID,50.4899,VALID,454.798,VALID,26.896,VALID,63,VALID,2.39687,
2015-12-31, 15:51:04,VALID,916.93,VALID,0,VALID,51.519,VALID,450.716,VALID,26.9742,VALID,36,VALID,1.28867,
2015-12-31, 15:52:04,VALID,916.938,VALID,0,VALID,48.3096,VALID,448.782,VALID,27.0719,VALID,74,VALID,2.70586,
2015-12-31, 15:53:04,VALID,916.901,VALID,0,VALID,50.9092,VALID,444.806,VALID,27.0132,VALID,30,VALID,1.48438,
2015-12-31, 15:54:04,VALID,916.904,VALID,0,VALID,46.7773,VALID,442.12,VALID,27.0523,VALID,46,VALID,2.02773,
2015-12-31, 15:55:04,VALID,916.868,VALID,0,VALID,47.6387,VALID,439.542,VALID,27.0914,VALID,87,VALID,2.16953,
2015-12-31, 15:56:04,VALID,916.842,VALID,0,VALID,50.7643,VALID,437.285,VALID,26.9567,VALID,62,VALID,2.25938,
2015-12-31, 15:57:04,VALID,916.75,VALID,0,VALID,49.4607,VALID,435.781,VALID,27.0739,VALID,49,VALID,3.01523,
2015-12-31, 15:58:04,VALID,916.818,VALID,0,VALID,47.7531,VALID,432.558,VALID,27.15,VALID,49,VALID,1.13633,
2015-12-31, 15:59:04,VALID,916.845,VALID,0,VALID,49.3159,VALID,429.657,VALID,27.1521,VALID,87,VALID,1.24766,
2015-12-31, 16:00:04,VALID,916.863,VALID,0,VALID,48.6221,VALID,428.583,VALID,27.1716,VALID,59,VALID,0.667578,
2015-12-31, 16:01:04,VALID,916.885,VALID,0,VALID,49.1177,VALID,426.649,VALID,27.2693,VALID,142,VALID,0,
2015-12-31, 16:02:04,VALID,916.871,VALID,0,VALID,50.8863,VALID,422.673,VALID,27.3844,VALID,104,VALID,1.31406,
2015-12-31, 16:03:04,VALID,916.903,VALID,0,VALID,48.8966,VALID,414.078,VALID,27.2281,VALID,51,VALID,2.92656,
2015-12-31, 16:04:04,VALID,916.881,VALID,0,VALID,49.7047,VALID,406.557,VALID,27.0523,VALID,95,VALID,2.53477,
2015-12-31, 16:05:04,VALID,916.874,VALID,0,VALID,51.0083,VALID,407.095,VALID,26.9372,VALID,61,VALID,3.7625,
2015-12-31, 16:06:04,VALID,916.832,VALID,0,VALID,49.4607,VALID,409.136,VALID,26.7788,VALID,51,VALID,3.92969,
2015-12-31, 16:07:04,VALID,916.858,VALID,0,VALID,51.1226,VALID,415.153,VALID,26.7398,VALID,51,VALID,2.43711,
2015-12-31, 16:08:04,VALID,916.876,VALID,0,VALID,51.7401,VALID,420.525,VALID,26.7788,VALID,91,VALID,1.52031,
2015-12-31, 16:09:04,VALID,916.89,VALID,0,VALID,52.7693,VALID,419.665,VALID,26.8374,VALID,75,VALID,1.18359,
2015-12-31, 16:10:04,VALID,916.854,VALID,0,VALID,49.758,VALID,414.186,VALID,26.7984,VALID,42,VALID,4.96445,
2015-12-31, 16:11:04,VALID,916.857,VALID,0,VALID,49.3311,VALID,412.037,VALID,26.6421,VALID,44,VALID,5.75352,
2015-12-31, 16:12:04,VALID,916.797,VALID,0,VALID,50.4518,VALID,347.894,VALID,26.564,VALID,60,VALID,4.06563,
2015-12-31, 16:13:04,VALID,916.821,VALID,0,VALID,50.1621,VALID,393.772,VALID,26.4272,VALID,49,VALID,5.35156,
2015-12-31, 16:14:04,VALID,916.817,VALID,0,VALID,50.8101,VALID,385.069,VALID,26.3296,VALID,76,VALID,2.9918,
2015-12-31, 16:15:04,VALID,916.777,VALID,0,VALID,51.7477,VALID,387.648,VALID,26.312,VALID,61,VALID,3.0332,
2015-12-31, 16:16:04,VALID,916.826,VALID,0,VALID,52.0832,VALID,386.358,VALID,26.3686,VALID,65,VALID,2.4332,
2015-12-31, 16:17:04,VALID,916.827,VALID,0,VALID,52.3348,VALID,380.557,VALID,26.3686,VALID,43,VALID,3.5543,
2015-12-31, 16:18:04,VALID,916.762,VALID,0,VALID,50.993,VALID,379.804,VALID,26.3511,VALID,50,VALID,3.25742,
2015-12-31, 16:19:04,VALID,916.762,VALID,0,VALID,52.8455,VALID,383.135,VALID,26.3316,VALID,75,VALID,2.90547,
2015-12-31, 16:20:04,VALID,916.71,VALID,0,VALID,52.533,VALID,384.317,VALID,26.3882,VALID,98,VALID,1.02969,
2015-12-31, 16:21:04,VALID,916.787,VALID,0,VALID,52.3271,VALID,258.181,VALID,26.4683,VALID,65,VALID,4.07383,
2015-12-31, 16:22:04,VALID,916.827,VALID,0,VALID,51.4886,VALID,373.895,VALID,26.4272,VALID,49,VALID,4.98242,
2015-12-31, 16:23:04,VALID,916.819,VALID,0,VALID,51.6029,VALID,366.697,VALID,26.3296,VALID,45,VALID,2.03555,
2015-12-31, 16:24:04,VALID,916.715,VALID,0,VALID,51.3666,VALID,358.639,VALID,26.3882,VALID,61,VALID,4.275,
2015-12-31, 16:25:04,VALID,916.828,VALID,0,VALID,51.1226,VALID,362.399,VALID,26.4097,VALID,39,VALID,2.86797,
2015-12-31, 16:29:04,VALID,916.85,VALID,0,VALID,52.7007,VALID,344.134,VALID,26.3902,VALID,34,VALID,3.59219,
2015-12-31, 16:30:04,VALID,916.867,VALID,0,VALID,51.4199,VALID,342.308,VALID,26.3686,VALID,65,VALID,3.59648,
2015-12-31, 16:31:04,VALID,916.885,VALID,0,VALID,53.5316,VALID,340.159,VALID,26.2925,VALID,75,VALID,1.91484,
2015-12-31, 16:32:04,VALID,916.882,VALID,0,VALID,52.754,VALID,339.084,VALID,26.273,VALID,38,VALID,3.83398,
2015-12-31, 16:33:04,VALID,916.877,VALID,0,VALID,52.0222,VALID,337.473,VALID,26.2925,VALID,76,VALID,2.18203,
2015-12-31, 16:34:04,VALID,916.956,VALID,0,VALID,52.2433,VALID,338.117,VALID,26.3316,VALID,93,VALID,1.22461,
2015-12-31, 16:35:04,VALID,916.962,VALID,0,VALID,53.9662,VALID,335.968,VALID,26.4097,VALID,56,VALID,0.603516,
2015-12-31, 16:36:04,VALID,916.923,VALID,0,VALID,52.7159,VALID,328.877,VALID,26.4683,VALID,90,VALID,3.60117,
2015-12-31, 16:37:04,VALID,916.91,VALID,0,VALID,53.0285,VALID,324.902,VALID,26.4097,VALID,82,VALID,1.21172,
2015-12-31, 16:42:04,VALID,916.988,VALID,0,VALID,54.3778,VALID,323.183,VALID,26.4077,VALID,55,VALID,1.96836,
2015-12-31, 16:43:04,VALID,917.021,VALID,0,VALID,54.8047,VALID,325.009,VALID,26.4057,VALID,38,VALID,1.85,
2015-12-31, 16:44:04,VALID,917.02,VALID,0,VALID,55.3765,VALID,337.365,VALID,26.605,VALID,62,VALID,1.28555,
2015-12-31, 16:45:04,VALID,917.009,VALID,0,VALID,52.7845,VALID,129.574,VALID,26.6812,VALID,63,VALID,2.66758,
2015-12-31, 16:46:04,VALID,917.008,VALID,0,VALID,53.463,VALID,327.158,VALID,26.564,VALID,43,VALID,3.36719,
2015-12-31, 16:47:04,VALID,917.004,VALID,0,VALID,55.2621,VALID,343.06,VALID,26.4663,VALID,47,VALID,2.57852,
2015-12-31, 16:48:04,VALID,917.03,VALID,0,VALID,53.707,VALID,346.175,VALID,26.605,VALID,15,VALID,1.76289,
2015-12-31, 16:49:04,VALID,917.051,VALID,0,VALID,52.3729,VALID,351.118,VALID,26.6812,VALID,54,VALID,2.51836,
2015-12-31, 16:50:04,VALID,917.03,VALID,0,VALID,53.9662,VALID,355.738,VALID,26.8199,VALID,16,VALID,0.096875,
2015-12-31, 16:51:04,VALID,917.042,VALID,0,VALID,52.5711,VALID,350.258,VALID,26.9742,VALID,360,VALID,1.25078,
2015-12-31, 16:52:04,VALID,917.063,VALID,0,VALID,52.9751,VALID,206.394,VALID,26.9546,VALID,359,VALID,2.26563,
2015-12-31, 16:53:04,VALID,917.082,VALID,0,VALID,54.698,VALID,268.066,VALID,26.8765,VALID,96,VALID,0.971094,
2015-12-31, 16:54:04,VALID,917.079,VALID,0,VALID,54.5227,VALID,172.658,VALID,26.8179,VALID,59,VALID,2.02695,
2015-12-31, 16:55:04,VALID,917.083,VALID,0,VALID,54.7819,VALID,134.624,VALID,26.6616,VALID,51,VALID,1.67969,
2015-12-31, 16:56:04,VALID,917.064,VALID,0,VALID,54.9267,VALID,296,VALID,26.605,VALID,49,VALID,0.40625,
2015-12-31, 16:57:04,VALID,917.071,VALID,0,VALID,54.942,VALID,227.883,VALID,26.6636,VALID,68,VALID,0.559766,
